Regional Weather Roundup
Issued by NWS Sterling, VA

Home | Current Version | Previous Version | Graphics & Text | Print | Product List | Glossary On
Versions: 1 2 3 4 5 6 7 8 9 10 11 12 13 14 15 16 17 18 19 20 21 22 23 24 25 26 27 28 29 30 31 32 33 34 35 36 37 38 39 40 41 42 43 44 45 46 47 48 49 50
000
ASUS41 KLWX 051110
RWRLWX

REGIONAL WEATHER ROUNDUP
NATIONAL WEATHER SERVICE BALTIMORE MD/WASHINGTON DC
700 AM EDT WED AUG 05 2015

Note: "FAIR" indicates few or no clouds below 12,000 feet
with no significant weather and/or obstructions to visibility.
 TC=TEMPERATURE CELSIUS

 * =Non NWS site. Station does not report precipitation (e.g. rain,
    snow, etc.), thunder, or fog.

DCZ001-MDZ009-015-VAZ040>042-051-053>054-051200-
WASHINGTON METRO

CITY           SKY/WX    TMP DP  RH WIND       PRES   REMARKS
WASHINGTON NAT CLOUDY    76  69  79 CALM      29.95S
DULLES         MOCLDY    66  64  93 CALM      29.96S
ANDREWS AFB    CLOUDY    71  69  93 NW2       29.95R
FT BELVOIR     CLOUDY    69  68  95 CALM      29.95R
QUANTICO       CLOUDY    71  67  87 W6        29.96R
COLLEGE PARK*  CLOUDY    70  70 100 CALM      29.95R
LEESBURG*      CLOUDY    68  68 100 W3        29.98S
MANASSAS*      CLEAR     64  64 100 CALM      29.97R HAZE
GAITHERSBURG*  CLOUDY    64  61  88 CALM      30.00S

$$

MDZ006>007-011-014-051200-
BALTIMORE METRO

CITY           SKY/WX    TMP DP  RH WIND       PRES   REMARKS
BWI AIRPORT    CLOUDY    68  67  96 W3        29.94R
MD SCIENCE CTR   N/A     74  66  76 MISG      29.94R
MARTIN STATE   MOCLDY    72  72 100 CALM      29.94S
ANNAPOLIS      CLOUDY    73  70  90 CALM      29.94R
FORT MEADE*    CLOUDY    64  64 100 CALM      29.97S

$$

MDZ012-015-019>023-051200-
MARYLAND EASTERN SHORE

CITY           SKY/WX    TMP DP  RH WIND       PRES   REMARKS
OCEAN CITY       N/A    N/A N/A N/A MISG      29.92F
SALISBURY      PTCLDY    71  70  96 CALM      29.93R
BAY BRIDGE AP*   N/A     73  72  94 NW3       29.94R
CAMBRIDGE*     CLOUDY    72  70  94 CALM      29.93R
EASTON*        CLOUDY    72  72 100 CALM      29.97R FOG

$$

MDZ017>025-051200-
SOUTHERN MARYLAND

CITY           SKY/WX    TMP DP  RH WIND       PRES   REMARKS
PATUXENT RIVER CLOUDY    73  71  93 CALM      29.93R
ST INIGOES     NOT AVBL
LEONARDTOWN*   CLOUDY    70  68  94 CALM      29.96R

$$

MDZ003>005-051200-
NORTH CENTRAL MARYLAND

CITY           SKY/WX    TMP DP  RH WIND       PRES   REMARKS
FREDERICK*     CLEAR     66  66 100 CALM      29.99R
HAGERSTOWN APT CLOUDY    68  60  75 CALM      29.98R
WESTMINSTER*   CLOUDY    70  61  73 CALM      29.98R

$$

MDZ501>502-051200-
WESTERN MARYLAND

CITY           SKY/WX    TMP DP  RH WIND       PRES   REMARKS
OAKLAND*       CLOUDY    61 N/A N/A W3        30.08S
CUMBERLAND*    CLOUDY    64  61  88 CALM      30.05R

$$

VAZ025>031-051200-
SHENANDOAH VALLEY

CITY           SKY/WX    TMP DP  RH WIND       PRES   REMARKS
WINCHESTER*    CLOUDY    68  64  88 W5        29.99R
FRONT ROYAL*   PTSUNNY   64  64 100 SW3       29.99R
LURAY*         FAIR      64  64 100 CALM      30.01R
NEW MARKET*    FAIR      64  62  94 CALM      30.01R
STAUNTON*      CLOUDY    68  64  86 CALM      30.05R
WAYNESBORO*    FAIR      67  64  90 MISG      30.04R

$$

WVZ021-048>050-054>055-051200-
EASTERN WEST VIRGINIA PANHANDLE

CITY           SKY/WX    TMP DP  RH WIND       PRES   REMARKS
MARTINSBURG    CLOUDY    65  63  93 CALM      29.99R
PETERSBURG*    CLOUDY    64  62  94 CALM      30.03R FOG

$$

VAZ036>039-050-051200-
CENTRAL FOOTHILLS

CITY           SKY/WX    TMP DP  RH WIND       PRES   REMARKS
CHARLOTTESVILL CLOUDY    71  65  81 CALM      29.99R
CULPEPER*      FOG       64  64 100 CALM      29.99R VSB 3/4
ORANGE*        PTCLDY    68  66  94 CALM      30.00R
GORDONSVILLE*  FAIR      66  64  94 MISG      29.98S
WARRENTON*     FOG       63  63 100 CALM      29.97R VSB 1

$$

VAZ055>057-051200-
NORTH AND CENTRAL PIEDMONT

CITY           SKY/WX    TMP DP  RH WIND       PRES   REMARKS
FREDERICKSBRG* MOCLDY    72  71  96 CALM      29.96R
STAFFORD*      MOCLDY    67  65  95 CALM      30.00S

$$

NCZ024-NYZ072-PAZ021-071-VAZ022-071-051200-
OTHER REGIONAL OBSERVATIONS

CITY           SKY/WX    TMP DP  RH WIND       PRES   REMARKS
NEW YORK CITY  MOSUNNY   73  59  61 CALM      29.94R
PHILADELPHIA   MOCLDY    76  55  48 W5        29.92R
PITTSBURGH     PTCLDY    62  57  83 W8        30.01R
ROANOKE        CLOUDY    73  64  73 W7        30.06R
RICHMOND       CLOUDY    75  70  84 NW3       29.96R
RALEIGH        PTCLDY    73  72  96 CALM      30.00R

$$

ANZ530>537-051200-
MARINE OBSERVATIONS

STATION/POSITION TIME  TEMP    WIND        PRES
                       AIR SEA DIR/SP/G
                 (UTC) (F)     (DEG/KT/KT) (MB)
THOMAS PT LIGHT  NOT AVBL
BALT KEY BRIDGE  1000   74     230/  5/  5 1013.3R
COVE POINT       1000   77      30/  5/  6 1014.0R
LEWISETTA        1000   76 83  290/  5/  5 1013.2R
SOLOMONS ISLAND  1000      83                N/A
PINEY POINT      1000          300/  2/  3   N/A

$$



USA.gov is the U.S. government's official web portal to all federal, state and local government web resources and services.